Time,TemperatureF,DewpointF,PressureIn,WindDirection,WindDirectionDegrees,WindSpeedMPH,WindSpeedGustMPH,Humidity,HourlyPrecipIn,Conditions,Clouds,dailyrainin,SoftwareType,DateUTC
2013-07-27 00:01:00,64.8,64.0,30.05,WSW,246,5.0,8.0,98,0.00,,,0.00,weatherlink.com 1.10,2013-07-27 05:01:00,
2013-07-27 00:17:00,64.8,64.0,30.05,West,274,4.0,10.0,98,0.00,,,0.00,weatherlink.com 1.10,2013-07-27 05:17:00,
2013-07-27 00:32:00,64.9,64.0,30.05,SW,235,2.0,8.0,98,0.00,,,0.00,weatherlink.com 1.10,2013-07-27 05:32:00,
2013-07-27 00:47:00,64.8,64.0,30.05,WSW,255,7.0,8.0,98,0.00,,,0.00,weatherlink.com 1.10,2013-07-27 05:47:00,
2013-07-27 01:02:00,64.8,64.0,30.05,West,264,6.0,9.0,98,0.00,,,0.00,weatherlink.com 1.10,2013-07-27 06:02:00,
2013-07-27 01:17:00,64.9,64.0,30.05,West,267,5.0,10.0,98,0.00,,,0.00,weatherlink.com 1.10,2013-07-27 06:17:00,
2013-07-27 01:32:00,65.0,65.0,30.06,West,265,8.0,9.0,98,0.00,,,0.00,weatherlink.com 1.10,2013-07-27 06:32:00,
2013-07-27 01:47:00,65.0,65.0,30.05,West,259,6.0,10.0,98,0.00,,,0.00,weatherlink.com 1.10,2013-07-27 06:47:00,
2013-07-27 02:02:00,65.1,65.0,30.05,West,267,7.0,9.0,98,0.00,,,0.00,weatherlink.com 1.10,2013-07-27 07:02:00,
2013-07-27 02:17:00,65.2,65.0,30.04,West,263,8.0,10.0,98,0.00,,,0.00,weatherlink.com 1.10,2013-07-27 07:17:00,
2013-07-27 02:32:00,65.2,65.0,30.05,WNW,283,6.0,11.0,98,0.00,,,0.00,weatherlink.com 1.10,2013-07-27 07:32:00,
2013-07-27 02:47:00,65.3,65.0,30.04,West,273,5.0,9.0,99,0.00,,,0.00,weatherlink.com 1.10,2013-07-27 07:47:00,
2013-07-27 03:02:00,65.3,65.0,30.04,WNW,291,5.0,8.0,98,0.00,,,0.00,weatherlink.com 1.10,2013-07-27 08:02:00,
2013-07-27 03:17:00,65.2,65.0,30.04,West,275,5.0,9.0,98,0.00,,,0.00,weatherlink.com 1.10,2013-07-27 08:17:00,
2013-07-27 03:32:00,65.2,65.0,30.04,WNW,299,4.0,8.0,99,0.00,,,0.00,weatherlink.com 1.10,2013-07-27 08:32:00,
2013-07-27 03:47:00,65.3,65.0,30.03,WNW,286,4.0,7.0,99,0.00,,,0.00,weatherlink.com 1.10,2013-07-27 08:47:00,
2013-07-27 04:02:00,65.1,65.0,30.03,NW,321,4.0,6.0,99,0.00,,,0.00,weatherlink.com 1.10,2013-07-27 09:02:00,
2013-07-27 04:17:00,64.9,65.0,30.04,NW,315,3.0,7.0,99,0.00,,,0.00,weatherlink.com 1.10,2013-07-27 09:17:00,
2013-07-27 04:32:00,64.9,64.0,30.03,WNW,297,3.0,7.0,98,0.00,,,0.00,weatherlink.com 1.10,2013-07-27 09:32:00,
2013-07-27 04:47:00,65.0,65.0,30.04,WNW,300,6.0,9.0,98,0.00,,,0.00,weatherlink.com 1.10,2013-07-27 09:47:00,
2013-07-27 05:02:00,64.7,64.0,30.04,NW,314,2.0,5.0,98,0.00,,,0.00,weatherlink.com 1.10,2013-07-27 10:02:00,
2013-07-27 05:17:00,64.7,64.0,30.05,North,351,2.0,6.0,98,0.00,,,0.00,weatherlink.com 1.10,2013-07-27 10:17:00,
2013-07-27 05:32:00,64.7,64.0,30.05,NNW,338,1.0,4.0,98,0.00,,,0.00,weatherlink.com 1.10,2013-07-27 10:32:00,
2013-07-27 05:47:00,64.4,64.0,30.05,North,9,5.0,8.0,97,0.00,,,0.00,weatherlink.com 1.10,2013-07-27 10:47:00,
2013-07-27 06:02:00,64.2,63.0,30.05,North,351,4.0,6.0,96,0.00,,,0.00,weatherlink.com 1.10,2013-07-27 11:02:00,
2013-07-27 06:17:00,64.1,63.0,30.05,North,5,6.0,8.0,96,0.00,,,0.00,weatherlink.com 1.10,2013-07-27 11:17:00,
2013-07-27 06:32:00,63.6,63.0,30.05,NNE,26,6.0,9.0,96,0.00,,,0.00,weatherlink.com 1.10,2013-07-27 11:32:00,
2013-07-27 06:47:00,63.2,62.0,30.06,NNE,22,6.0,8.0,95,0.00,,,0.00,weatherlink.com 1.10,2013-07-27 11:47:00,
2013-07-27 07:02:00,62.8,61.0,30.06,NNE,29,7.0,8.0,94,0.00,,,0.00,weatherlink.com 1.10,2013-07-27 12:02:00,
2013-07-27 07:17:00,62.5,61.0,30.06,NNE,18,4.0,7.0,95,0.00,,,0.00,weatherlink.com 1.10,2013-07-27 12:17:00,
2013-07-27 07:32:00,62.8,61.0,30.06,NE,42,5.0,9.0,92,0.00,,,0.00,weatherlink.com 1.10,2013-07-27 12:32:00,
2013-07-27 07:47:00,63.1,60.0,30.07,NNE,22,5.0,11.0,90,0.00,,,0.00,weatherlink.com 1.10,2013-07-27 12:47:00,
2013-07-27 08:02:00,63.4,60.0,30.07,NNE,22,5.0,11.0,88,0.00,,,0.00,weatherlink.com 1.10,2013-07-27 13:02:00,
2013-07-27 08:17:00,63.8,60.0,30.07,NNE,17,6.0,11.0,86,0.00,,,0.00,weatherlink.com 1.10,2013-07-27 13:17:00,
2013-07-27 08:32:00,64.2,59.0,30.07,NNE,27,7.0,11.0,84,0.00,,,0.00,weatherlink.com 1.10,2013-07-27 13:32:00,
2013-07-27 08:47:00,64.6,59.0,30.07,NE,36,8.0,10.0,83,0.00,,,0.00,weatherlink.com 1.10,2013-07-27 13:47:00,
2013-07-27 09:02:00,65.3,59.0,30.07,NNE,33,6.0,10.0,80,0.00,,,0.00,weatherlink.com 1.10,2013-07-27 14:02:00,
2013-07-27 09:17:00,66.1,60.0,30.08,NE,46,5.0,11.0,80,0.00,,,0.00,weatherlink.com 1.10,2013-07-27 14:17:00,
2013-07-27 09:32:00,66.7,60.0,30.08,NE,38,5.0,8.0,80,0.00,,,0.00,weatherlink.com 1.10,2013-07-27 14:32:00,
2013-07-27 09:47:00,67.0,60.0,30.08,NE,52,5.0,8.0,77,0.00,,,0.00,weatherlink.com 1.10,2013-07-27 14:47:00,
2013-07-27 10:02:00,68.1,60.0,30.09,NW,319,5.0,9.0,76,0.00,,,0.00,weatherlink.com 1.10,2013-07-27 15:02:00,
2013-07-27 10:18:00,67.9,61.0,30.10,NNW,335,6.0,11.0,78,0.00,,,0.00,weatherlink.com 1.10,2013-07-27 15:18:00,
2013-07-27 10:33:00,68.6,61.0,30.10,NW,313,3.0,13.0,76,0.00,,,0.00,weatherlink.com 1.10,2013-07-27 15:33:00,
2013-07-27 10:48:00,67.9,60.0,30.10,NNE,12,11.0,15.0,76,0.00,,,0.00,weatherlink.com 1.10,2013-07-27 15:48:00,
2013-07-27 11:03:00,68.5,61.0,30.09,NNW,332,5.0,11.0,77,0.00,,,0.00,weatherlink.com 1.10,2013-07-27 16:03:00,
2013-07-27 11:18:00,68.6,60.0,30.09,NNE,21,5.0,9.0,74,0.00,,,0.00,weatherlink.com 1.10,2013-07-27 16:18:00,
2013-07-27 11:33:00,69.5,61.0,30.09,NW,304,6.0,12.0,73,0.00,,,0.00,weatherlink.com 1.10,2013-07-27 16:33:00,
2013-07-27 11:48:00,70.1,60.0,30.09,North,5,9.0,11.0,70,0.00,,,0.00,weatherlink.com 1.10,2013-07-27 16:48:00,
2013-07-27 12:03:00,70.2,59.0,30.07,NE,50,5.0,12.0,68,0.00,,,0.00,weatherlink.com 1.10,2013-07-27 17:03:00,
2013-07-27 12:18:00,70.1,58.0,30.09,NNW,335,5.0,9.0,66,0.00,,,0.00,weatherlink.com 1.10,2013-07-27 17:18:00,
2013-07-27 12:33:00,70.4,58.0,30.09,NW,322,3.0,9.0,66,0.00,,,0.00,weatherlink.com 1.10,2013-07-27 17:33:00,
2013-07-27 12:48:00,70.5,58.0,30.08,NW,306,5.0,11.0,64,0.00,,,0.00,weatherlink.com 1.10,2013-07-27 17:48:00,
2013-07-27 13:03:00,70.7,58.0,30.07,NNW,330,5.0,13.0,65,0.00,,,0.00,weatherlink.com 1.10,2013-07-27 18:03:00,
2013-07-27 13:18:00,72.1,58.0,30.07,NW,320,5.0,11.0,62,0.00,,,0.00,weatherlink.com 1.10,2013-07-27 18:18:00,
2013-07-27 13:33:00,71.6,57.0,30.06,NNE,32,5.0,9.0,61,0.00,,,0.00,weatherlink.com 1.10,2013-07-27 18:33:00,
2013-07-27 13:48:00,71.7,58.0,30.07,WNW,294,5.0,11.0,63,0.00,,,0.00,weatherlink.com 1.10,2013-07-27 18:48:00,
2013-07-27 14:03:00,72.2,59.0,30.07,NNE,16,11.0,13.0,63,0.00,,,0.00,weatherlink.com 1.10,2013-07-27 19:03:00,
2013-07-27 14:18:00,71.6,58.0,30.06,NNW,343,7.0,13.0,63,0.00,,,0.00,weatherlink.com 1.10,2013-07-27 19:18:00,
2013-07-27 14:33:00,72.3,59.0,30.05,West,279,7.0,9.0,64,0.00,,,0.00,weatherlink.com 1.10,2013-07-27 19:33:00,
2013-07-27 14:48:00,73.1,57.0,30.05,NNW,347,2.0,9.0,58,0.00,,,0.00,weatherlink.com 1.10,2013-07-27 19:48:00,
2013-07-27 15:03:00,72.1,57.0,30.05,NNE,19,2.0,12.0,59,0.00,,,0.00,weatherlink.com 1.10,2013-07-27 20:03:00,
2013-07-27 15:18:00,73.5,57.0,30.04,NW,318,2.0,9.0,56,0.00,,,0.00,weatherlink.com 1.10,2013-07-27 20:18:00,
2013-07-27 15:33:00,72.7,56.0,30.04,NNE,19,4.0,10.0,57,0.00,,,0.00,weatherlink.com 1.10,2013-07-27 20:33:00,
2013-07-27 15:48:00,74.1,58.0,30.04,NW,314,7.0,11.0,57,0.00,,,0.00,weatherlink.com 1.10,2013-07-27 20:48:00,
2013-07-27 16:03:00,74.1,59.0,30.04,WNW,302,4.0,11.0,59,0.00,,,0.00,weatherlink.com 1.10,2013-07-27 21:03:00,
2013-07-27 16:18:00,72.7,59.0,30.04,SSW,207,5.0,8.0,63,0.00,,,0.00,weatherlink.com 1.10,2013-07-27 21:18:00,
2013-07-27 16:33:00,73.7,58.0,30.03,NW,317,6.0,10.0,59,0.00,,,0.00,weatherlink.com 1.10,2013-07-27 21:33:00,
2013-07-27 16:48:00,74.8,58.0,30.03,West,277,5.0,8.0,56,0.00,,,0.00,weatherlink.com 1.10,2013-07-27 21:48:00,
2013-07-27 17:03:00,74.3,57.0,30.03,WNW,301,5.0,10.0,55,0.00,,,0.00,weatherlink.com 1.10,2013-07-27 22:03:00,
2013-07-27 17:18:00,74.2,58.0,30.03,NNW,331,6.0,11.0,57,0.00,,,0.00,weatherlink.com 1.10,2013-07-27 22:18:00,
2013-07-27 17:33:00,74.3,57.0,30.03,West,279,6.0,10.0,55,0.00,,,0.00,weatherlink.com 1.10,2013-07-27 22:33:00,
2013-07-27 17:48:00,74.9,59.0,30.03,WNW,294,5.0,10.0,57,0.00,,,0.00,weatherlink.com 1.10,2013-07-27 22:48:00,
2013-07-27 18:03:00,74.8,58.0,30.03,NW,313,4.0,8.0,56,0.00,,,0.00,weatherlink.com 1.10,2013-07-27 23:03:00,
2013-07-27 18:18:00,74.2,57.0,30.03,WNW,303,2.0,11.0,56,0.00,,,0.00,weatherlink.com 1.10,2013-07-27 23:18:00,
2013-07-27 18:33:00,74.2,57.0,30.02,WNW,302,3.0,7.0,56,0.00,,,0.00,weatherlink.com 1.10,2013-07-27 23:33:00,
2013-07-27 18:48:00,73.6,57.0,30.02,NW,318,3.0,6.0,57,0.00,,,0.00,weatherlink.com 1.10,2013-07-27 23:48:00,
2013-07-27 19:03:00,73.2,57.0,30.02,WNW,288,3.0,5.0,57,0.00,,,0.00,weatherlink.com 1.10,2013-07-28 00:03:00,
2013-07-27 19:18:00,73.1,57.0,30.02,WNW,294,2.0,5.0,58,0.00,,,0.00,weatherlink.com 1.10,2013-07-28 00:18:00,
2013-07-27 19:33:00,72.6,59.0,30.02,WNW,293,0.0,3.0,62,0.00,,,0.00,weatherlink.com 1.10,2013-07-28 00:33:00,
2013-07-27 19:48:00,72.1,58.0,30.02,WNW,293,2.0,3.0,61,0.00,,,0.00,weatherlink.com 1.10,2013-07-28 00:48:00,
2013-07-27 20:03:00,71.1,58.0,30.02,WNW,294,2.0,4.0,63,0.00,,,0.00,weatherlink.com 1.10,2013-07-28 01:03:00,
2013-07-27 20:18:00,70.4,57.0,30.02,WNW,299,2.0,4.0,63,0.00,,,0.00,weatherlink.com 1.10,2013-07-28 01:18:00,
2013-07-27 20:33:00,69.7,60.0,30.01,WNW,298,1.0,2.0,72,0.00,,,0.00,weatherlink.com 1.10,2013-07-28 01:33:00,
2013-07-27 20:48:00,68.6,59.0,30.02,WNW,298,2.0,2.0,71,0.00,,,0.00,weatherlink.com 1.10,2013-07-28 01:48:00,
2013-07-27 21:03:00,69.3,57.0,30.01,WNW,298,2.0,4.0,65,0.00,,,0.00,weatherlink.com 1.10,2013-07-28 02:03:00,
2013-07-27 21:18:00,69.0,56.0,30.02,WNW,298,0.0,4.0,64,0.00,,,0.00,weatherlink.com 1.10,2013-07-28 02:18:00,
2013-07-27 21:33:00,67.6,61.0,30.02,WNW,298,0.0,0.0,80,0.00,,,0.00,weatherlink.com 1.10,2013-07-28 02:33:00,
2013-07-27 21:48:00,65.8,61.0,30.03,WNW,298,0.0,0.0,83,0.00,,,0.00,weatherlink.com 1.10,2013-07-28 02:48:00,
2013-07-27 22:03:00,65.1,60.0,30.03,WNW,298,0.0,0.0,82,0.00,,,0.00,weatherlink.com 1.10,2013-07-28 03:03:00,
2013-07-27 22:18:00,63.9,60.0,30.03,WNW,298,0.0,0.0,87,0.00,,,0.00,weatherlink.com 1.10,2013-07-28 03:18:00,
2013-07-27 22:33:00,63.0,59.0,30.04,WNW,298,0.0,0.0,87,0.00,,,0.00,weatherlink.com 1.10,2013-07-28 03:33:00,
2013-07-27 22:48:00,62.5,58.0,30.04,WNW,298,0.0,1.0,85,0.00,,,0.00,weatherlink.com 1.10,2013-07-28 03:48:00,
2013-07-27 23:03:00,62.6,58.0,30.04,WNW,298,0.0,0.0,86,0.00,,,0.00,weatherlink.com 1.10,2013-07-28 04:03:00,
2013-07-27 23:18:00,62.3,58.0,30.04,WNW,298,0.0,0.0,87,0.00,,,0.00,weatherlink.com 1.10,2013-07-28 04:18:00,
2013-07-27 23:33:00,61.4,59.0,30.03,WNW,298,0.0,2.0,90,0.00,,,0.00,weatherlink.com 1.10,2013-07-28 04:33:00,
2013-07-27 23:48:00,61.2,59.0,30.04,WNW,298,0.0,0.0,91,0.00,,,0.00,weatherlink.com 1.10,2013-07-28 04:48:00,